Regional Weather Roundup
Issued by NWS

Home | Current Version | Previous Version | Graphics & Text | Print | Product List | Glossary On
Versions: 1 2 3 4 5 6 7 8 9 10 11 12 13 14 15 16 17 18 19 20 21 22 23 24 25 26 27
000
ASUS45 KBOI 171810
RWRID

IDAHO REGIONAL WEATHER ROUNDUP
NATIONAL WEATHER SERVICE BOISE ID
1100 AM MST TUE JAN 17 2017

NOTE: "FAIR" INDICATES FEW OR NO CLOUDS BELOW 12000 FEET
WITH NO SIGNIFICANT WEATHER AND/OR OBSTRUCTIONS TO VISIBILITY

IDZ012-014-171900-
SOUTHWEST IDAHO


CITY           SKY/WX    TMP DP  RH WIND       PRES   REMARKS
BOISE          SUNNY      8   2  76 NW5       30.36R HAZE    WCI   0
CALDWELL       MOSUNNY    3   0  85 NW5       30.44R HAZE    WCI  -6
MOUNTAIN HOME  SUNNY      8   8  98 S3        30.33S
$$

IDZ016-017-171900-
SOUTHCENTRAL IDAHO


CITY           SKY/WX    TMP DP  RH WIND       PRES   REMARKS
BURLEY         SUNNY     13   5  70 NE12      30.27F WCI  -1
JEROME         SUNNY     11   5  77 NE18      30.27F WCI  -7
TWIN FALLS     SUNNY     15  10  80 E8        30.27F WCI   4
$$

IDZ019>023-171900-
SOUTHEAST IDAHO


CITY           SKY/WX    TMP DP  RH WIND       PRES   REMARKS
IDAHO FALLS    CLOUDY     2  -4  76 N7        30.31S WCI -11
POCATELLO      CLOUDY     6   2  83 CALM      30.32S
REXBURG        CLOUDY     4  -3  73 CALM      30.30S
$$

IDZ006-010-011-018-031-032-171900-
CENTRAL IDAHO MOUNTAINS


CITY           SKY/WX    TMP DP  RH WIND       PRES   REMARKS
MCCALL         MOSUNNY    9   5  84 CALM      30.16R
HAILEY         MOSUNNY   16   7  67 NW7       30.25S WCI   6
STANLEY          N/A     -1  -6  79 CALM      30.20F
SALMON         CLOUDY   -11 -15  84 CALM      30.39F
CHALLIS        SUNNY     -8 -15  71 NW5       30.29F WCI -19
$$

IDZ002-004-006-007-026-171900-
NORTHERN IDAHO


CITY           SKY/WX    TMP DP  RH WIND       PRES   REMARKS
LEWISTON       CLOUDY    31  18  58 SE21G26   30.11S WCI  18
LOWELL           N/A     21  15  78 VRB6      30.21S WCI  13
COEUR D`ALENE  LGT SNOW  22  20  92 N5        30.04F FOG     WCI  16
MULLAN PASS    CLOUDY    28  18  66 S8        29.95R WCI  20
$$




USA.gov is the U.S. government's official web portal to all federal, state and local government web resources and services.